{"data":{"norad_id":45669,"epoch":"2026-05-25T01:18:15.922080Z","epoch_age_seconds":64113,"freshness":"FRESH","line1":"1 45669U 20035N   26145.05435095  .00078076  00000+0  10970-2 0  9995","line2":"2 45669  53.0269  14.7396 0000847 227.6379 132.4559 15.56039096331215","mean_motion":15.56039096,"eccentricity":8.47e-5,"inclination_deg":53.0269,"raan_deg":14.7396,"arg_perigee_deg":227.6379,"mean_anomaly_deg":132.4559,"bstar":0.001097,"rev_number":33121,"period_min":92.542661922937,"perigee_km":398.5597517075,"apogee_km":399.70782137874,"semimajor_km":6777.2707865431,"source":"CELESTRAK","updated_at":"2026-05-25T13:38:16.427161Z"}}